STARLINK-11446, 62416

Orbit data source: Space-Track

STARLINK-11446, 62416 is a payload satellite owned by SpaceX/Seattle (US) in LEO that was launched on Mon, 23 Dec 2024 UTC via an FALCON 9 launch vehicle from the Air Force Eastern Test Range (AFETR). Payload-class satellites include a variety of spacecraft equipped with specific instruments for various scientific and technological missions. These include communications satellites like Starlink; space stations such as the ISS; scientific satellites like the Hubble; Earth observation satellites from companies like Planet Labs, Umbra, and HawkEye 360; GPS; miniature CubeSats for education and research; and military/defense satellites.

Loading next visibility...
Identifier
62416, 2024-249H
Orbit
LEO
Country
Flag of USUS
Related business
Manufacturer
SpaceX/Seattle
Mission
Operational Commercial Communications
Bus & Motor
STARLINK V2MD, Unknown motor
Mass
960 kg wet, ~910 kg dry
Launch date (UTC)
2024-12-23 (1 year ago)
Launch vehicle
FALCON 9
Launch site
Air Force Eastern Test Range (AFETR)
Object type
Payload
Rocket body
Debris
Shape & HBR
Box + 2 Pan, 18.1 m
Radar Cross Section
36.964 m², Large (>1 m²)

Expand to show TLE details & history
Last TLE update: 2 days ago

TLE from 2 days ago
0 STARLINK-11446
1 62416U 24249H   26170.34753558  .00241563  00000-0  18308-2 0  9999
2 62416  42.9997 274.4593 0003304 288.3702  71.6807 15.70850717 85479
Epoch: 2026-06-19T08:20Z
TLE epoch observation values (Epoch: 2026-06-19T08:20:27.074Z)
Latitude
0.00005°
Longitude
-118.23126°
Altitude
355.537 km
Speed
7.698 km/s
True Right ascension
18h 17m 50s
True Declination
0° 00' 00"
Sunlit
Object was in full shadow at epoch
Visualization orbit readout
Latitude
Unknown
Longitude
Unknown
Altitude
Unknown
Speed
Unknown
Apparent Right ascension
Unknown
Apparent Declination
Unknown
Sunlit
N/A
Visualization observer readout
Local Sidereal Time
07:18:26
Azimuth
Unknown
Elevation
Unknown
Doppler factor
Unknown
Orbital elements
Apogee altitude
360.672 km
Perigee altitude
356.22 km
Semi-major axis
6,736.583 km
Eccentricity
0.00033
Inclination
42.9997°
RAAN
274.4593°
Arg. of periapsis
288.3702°
True anomaly
71.71665°
Mean anomaly
71.6807°
Eccentric anomaly
71.69867°
Mean motion
3.9254 °/min
Orbital period
91.71 mins
BSTAR
0.0018308
Loading maneuver chart data...
Computing Atmospheric mass density...
Loading historical data...
Loading historical data...
Loading historical data...
Loading historical data...
Loading historical data...
Loading historical data...
Loading historical data...

Documentation

Showing up to 5 results
|